Location: Gisborne
(38.6530°S, 178.0040°E)
Time: 02:11:19
(UTC+12:00)

Tiangong 2 - Pass Details

Date: 24 January 2019
Orbit: 378 x 389 km, 42.8° (Epoch: 20 April)

Event Time Altitude Azimuth Distance (km) Brightness Sun altitude
Rises 21:05:13 0° 256° (WSW) 2,286 6.7 -6.9°
Reaches altitude 10° 21:07:31 10° 269° (W) 1,422 5.0 -7.3°
Maximum altitude 21:10:14 25° 327° (NNW) 820 2.7 -7.8°
Drops below altitude 10° 21:12:55 10° 25° (NNE) 1,404 3.4 -8.2°
Enters shadow 21:13:12 - 28° (NNE) 1,508 3.5 -8.3°
